Regional Weather Roundup
Issued by NWS

Home | Current Version | Previous Version | Graphics & Text | Print | Product List | Glossary On
Versions: 1 2 3 4 5 6 7 8 9 10 11 12 13 14 15 16 17 18 19 20 21 22 23 24 25 26 27 28 29 30 31 32 33 34 35 36 37 38 39 40 41 42 43 44 45 46 47 48 49 50
510
ASUS43 KTOP 111059
RWRKS

WEATHER ROUNDUP FOR KANSAS
NATIONAL WEATHER SERVICE GOODLAND KS
500 AM CST THU FEB 11 2016

NOTE:  "FAIR" INDICATES FEW OR NO CLOUDS BELOW 12,000 FEET WITH NO
SIGNIFICANT WEATHER AND/OR OBSTRUCTIONS TO VISIBILITY.

KSZ001>006-013>018-027>032-041>047-111200-
NORTHWEST KANSAS

CITY           SKY/WX    TMP DP  RH WIND       PRES   REMARKS
GOODLAND       CLOUDY    26  21  81 SW7       30.15F
HAYS           CLEAR     30  19  64 NE10      30.19R WCI  21
HILL CITY      CLOUDY    24  22  91 NW5       30.19R
RUSSELL        CLEAR     29  25  85 N9        30.17R
$$

KSZ061>065-074>080-084>089-111200-
SOUTHWEST KANSAS

CITY           SKY/WX    TMP DP  RH WIND       PRES   REMARKS
DODGE CITY     CLOUDY    30  26  85 N8        30.17R
ELKHART          N/A     38  19  46 NW6         N/A
GARDEN CITY    CLOUDY    30  25  81 N9        30.16S
GREAT BEND     CLEAR     30  21  69 N13       30.18R WCI  20
LIBERAL        CLOUDY    30  21  69 N7        30.16S
$$

KSZ066>073-081>083-090>101-111200-
SOUTHEAST KANSAS

CITY           SKY/WX    TMP DP  RH WIND       PRES   REMARKS
CHANUTE        CLEAR     27  21  78 NE12      30.12R WCI  17
COFFEYVILLE    PTCLDY    31  24  75 N8        30.10R
HUTCHINSON     CLEAR     31  25  78 N9        30.16R
MEDICINE LODGE   N/A     34  29  82 NW5       30.14R
NEWTON         CLEAR     28  21  74 N13       30.16R WCI  18
PARSONS        CLOUDY    30  23  75 VRB6      30.10R
WICHITA INTL   PTCLDY    35  27  72 N8        30.14R
WICHITA JABRA  CLEAR     30  26  85 N8        30.14R
WINFIELD       CLEAR     35  28  75 N14       30.11R WCI  26
$$

KSZ007>012-019>026-033>040-048>060-102>105-111200-
NORTHEAST KANSAS

CITY           SKY/WX    TMP DP  RH WIND       PRES   REMARKS
CONCORDIA      CLOUDY    24  22  91 N10       30.21R FOG     WCI  14
EMPORIA        CLEAR     25  21  85 N13       30.15R WCI  14
LAWRENCE       CLEAR     23  19  85 N7        30.21R
MANHATTAN      CLOUDY    26  22  84 NE9       30.21R
OLATHE IND     CLEAR     23  19  85 NE10      30.19R WCI  12
OLATHE EXE     CLEAR     22  18  85 NE12      30.18R WCI  10
SALINA         CLOUDY    29  24  82 NE15      30.20R WCI  18
TOPEKA BILLARD CLEAR     24  19  81 N6        30.21R
TOPEKA FORBES  CLEAR     25  20  81 N7        30.19R
$$




USA.gov is the U.S. government's official web portal to all federal, state and local government web resources and services.